Theta_e
332 331 330 330 330 330 327 326 325 324 323 322 321 320 318 317 315 308 307 309 309 311 313 310 313 316 316 315 315 314 313 314 316 318 315 316 317 314 312 314 317 316 315 313 312 313 313 312 311 311 311 310 310 309 308 307 307 308 308 308 307 306 306 306 306 306 306 306 305 304 304 303 303 303
331 331 330 329 329 328 328 326 326 326 324 323 321 320 320 319 316 313 310 312 312 311 313 313 312 313 314 314 312 313 312 312 316 315 313 314 315 312 311 311 312 311 311 312 314 313 312 312 311 311 310 311 310 310 309 308 306 306 307 307 306 305 305 306 306 306 306 306 305 304 304 303 303 302
331 330 327 327 328 326 326 327 327 327 325 324 322 321 321 320 320 317 314 311 312 314 311 313 314 312 313 312 311 311 311 312 315 313 312 311 312 313 313 310 309 309 309 310 313 315 313 312 311 310 310 311 310 310 309 307 304 303 304 304 304 303 304 305 306 307 306 306 305 304 304 304 303 302
330 329 329 328 327 325 325 325 326 326 326 325 323 322 320 319 319 320 316 313 312 312 313 313 311 313 312 310 309 310 309 311 314 311 310 310 311 314 315 310 308 308 308 309 310 312 313 314 312 310 310 310 310 310 308 303 302 302 302 302 302 302 302 303 305 306 306 306 305 304 304 303 303 302
330 330 329 329 327 325 325 325 324 325 325 324 323 322 321 319 319 318 316 313 310 308 310 312 310 311 310 307 309 308 308 310 311 309 309 309 311 312 312 312 307 306 307 307 307 307 308 311 313 311 310 309 310 309 304 302 301 301 301 301 301 301 301 301 302 303 304 305 305 304 303 303 302 301
330 330 329 329 327 327 327 326 325 325 325 324 322 321 321 319 318 319 316 313 311 309 307 308 308 308 309 307 307 308 307 309 308 306 306 307 309 310 309 310 311 306 306 306 306 306 306 306 308 311 311 306 304 302 301 302 302 300 300 299 299 299 299 300 301 301 301 302 302 303 303 302 301 301
329 329 328 328 327 327 326 325 326 325 324 324 322 321 321 320 319 317 317 311 309 308 307 307 306 307 307 308 306 307 308 309 308 305 304 304 306 309 308 308 309 306 305 305 306 305 305 304 305 304 303 301 300 300 300 300 300 299 299 298 298 298 298 298 298 299 300 300 299 299 301 302 301 300
328 329 328 328 327 326 325 325 324 324 325 324 323 321 319 319 317 316 314 314 310 308 306 304 306 306 306 306 306 307 308 308 306 305 305 304 305 307 306 306 307 305 305 304 305 305 304 304 303 302 301 301 300 300 300 299 298 298 298 298 297 297 297 297 297 296 296 296 298 298 298 300 301 300
329 329 328 328 327 325 324 323 323 323 323 323 322 320 318 318 316 315 314 311 310 309 308 305 305 306 306 303 305 306 305 305 304 303 303 302 303 305 305 304 304 303 304 304 304 304 304 304 303 302 301 300 300 300 300 299 298 297 297 297 297 297 296 296 297 296 296 295 295 295 297 297 300 300
328 328 328 328 326 325 323 323 323 323 323 322 321 319 318 316 315 314 313 311 311 310 308 306 303 305 305 304 304 305 306 304 302 301 301 301 301 302 302 302 302 302 303 305 306 304 304 304 303 302 301 299 299 299 299 299 299 299 298 298 297 297 296 296 296 296 296 296 294 294 294 295 297 299
328 327 327 326 326 325 324 323 323 322 322 321 321 320 318 316 314 313 313 310 309 309 306 305 305 304 305 305 302 303 305 305 304 302 300 299 300 301 301 301 301 302 302 303 303 304 305 306 306 303 301 300 299 299 299 299 300 299 298 297 297 297 297 297 296 296 295 295 295 295 294 293 295 298
326 325 325 325 325 325 324 323 323 323 322 321 321 321 318 316 314 313 312 310 308 307 306 306 304 304 303 302 301 303 303 302 302 302 302 300 300 299 300 301 301 301 302 302 303 303 304 305 305 303 302 301 300 300 300 300 300 300 298 297 297 297 296 297 296 296 296 296 296 296 295 295 294 294
324 324 324 324 324 325 325 321 320 321 322 322 320 320 318 316 315 313 313 311 308 307 306 305 305 304 303 302 300 300 301 301 303 303 302 302 303 301 299 300 301 301 300 301 302 301 304 304 305 304 303 303 301 301 301 301 300 300 297 297 297 296 296 296 297 296 297 296 296 296 295 295 295 294
321 322 322 322 324 323 322 318 313 310 313 317 321 320 319 317 315 314 313 311 309 307 306 306 304 303 302 301 300 300 302 304 304 302 301 301 301 300 299 300 301 302 302 300 299 300 302 303 302 302 302 302 303 301 301 300 301 299 297 297 296 296 296 296 296 296 296 296 296 296 295 295 294 294
319 319 321 321 324 323 322 319 309 307 307 308 310 311 313 317 317 315 313 312 310 308 308 306 304 305 304 303 302 302 302 302 303 303 302 302 300 299 297 297 302 303 302 300 300 300 301 302 300 301 301 302 302 301 301 298 298 298 298 297 296 296 296 296 296 296 296 296 296 295 295 295 294 294
320 319 318 319 321 322 322 321 315 310 306 304 304 304 305 305 307 309 315 314 311 310 309 306 305 306 306 305 303 302 302 301 302 302 302 301 300 299 299 300 300 304 303 301 299 300 300 301 301 300 300 301 301 302 299 297 297 298 298 297 296 296 296 295 295 295 295 295 295 295 294 294 294 293
321 319 318 317 318 321 323 322 318 316 313 306 304 305 306 305 304 301 302 306 316 315 313 311 307 306 307 306 305 304 304 304 301 301 300 301 301 301 300 301 302 301 303 302 300 299 300 299 299 298 301 301 301 300 299 297 297 297 297 297 296 296 295 295 295 295 295 294 294 294 294 294 293 293
321 320 319 317 317 317 321 321 318 316 316 314 312 312 312 314 313 305 300 301 303 310 316 315 313 311 310 309 309 308 306 303 302 301 301 302 301 300 301 304 304 302 302 302 300 299 298 299 299 298 300 301 301 300 299 297 297 297 296 297 296 296 295 295 295 295 294 294 294 294 294 293 293 292
321 320 320 319 319 317 318 319 317 316 316 315 314 314 313 314 315 315 314 313 313 314 316 317 317 316 311 312 312 311 307 306 306 305 304 303 303 304 304 301 302 301 302 304 302 299 300 298 297 299 300 300 300 301 298 297 297 296 296 296 296 296 295 295 295 294 294 294 294 294 293 293 292 292
320 319 319 319 319 317 317 314 305 311 315 314 314 313 314 314 314 314 313 308 308 315 317 317 318 318 314 306 313 311 308 308 309 309 306 305 304 301 300 300 300 301 300 302 301 300 298 298 298 300 301 300 299 300 299 297 297 297 296 296 296 296 295 295 295 294 294 294 294 293 293 293 292 292
318 317 318 319 318 317 316 309 300 301 309 314 313 313 312 310 309 310 306 297 295 296 298 300 301 302 301 300 300 299 299 305 307 307 304 302 302 300 299 300 299 300 299 299 302 301 299 297 298 299 299 299 299 299 299 299 297 297 297 296 296 296 295 295 294 294 294 294 294 293 293 293 293 293
317 316 317 318 317 316 315 303 298 298 308 314 313 312 311 308 306 307 304 301 300 294 294 294 295 296 298 297 297 298 297 298 303 306 303 304 302 301 301 300 299 300 298 299 300 299 300 298 297 298 298 297 298 300 300 299 298 297 297 296 296 296 296 295 295 294 294 294 294 294 293 293 293 295
315 315 316 315 314 315 312 300 297 296 307 315 314 312 311 310 308 310 305 303 302 302 303 304 304 303 302 305 306 306 297 298 304 307 308 306 302 302 301 302 300 298 299 301 301 299 298 297 298 299 298 299 301 298 299 298 299 299 300 299 298 296 296 295 295 294 294 294 294 294 293 293 293 296
312 312 313 311 302 302 301 298 296 296 299 313 313 312 311 310 309 310 304 304 305 304 305 305 305 307 306 307 306 307 304 303 307 307 308 307 305 305 303 302 302 302 303 301 300 300 300 300 299 299 302 300 299 298 296 298 298 298 299 299 299 298 297 296 295 294 294 294 294 294 293 293 293 296
315 312 312 313 304 298 299 297 295 296 296 303 313 310 311 311 310 303 306 304 304 304 304 302 302 302 303 304 305 305 304 303 305 306 306 307 306 306 305 302 301 303 303 299 298 303 300 299 300 298 297 298 298 299 298 296 296 297 298 299 299 299 299 299 298 299 295 294 293 293 293 293 293 294
317 315 313 313 307 298 298 297 296 295 296 296 310 309 301 300 296 306 307 305 304 303 303 302 301 301 301 302 303 303 304 303 304 306 306 305 306 307 308 305 303 302 304 301 296 304 301 297 300 298 298 297 297 297 298 298 298 296 297 297 298 299 298 299 298 298 299 299 298 295 295 293 293 293
318 317 315 313 305 298 297 297 296 295 295 297 305 299 296 297 295 300 304 303 303 302 302 301 302 301 301 301 301 302 302 303 304 304 306 305 305 306 306 307 308 308 308 301 300 304 304 302 300 300 298 299 299 294 296 299 298 295 295 295 296 297 297 297 297 298 298 297 298 294 292 292 292 293
320 318 316 312 301 298 297 296 296 295 295 299 298 297 296 295 296 305 302 301 302 300 300 300 301 301 300 301 300 301 302 303 302 303 303 303 303 304 305 304 303 303 303 302 301 303 305 303 299 302 303 299 298 296 297 297 297 297 299 297 295 295 295 295 296 297 296 296 296 296 295 295 295 294
320 310 305 302 299 298 297 296 296 295 295 295 296 296 295 299 302 303 302 302 301 301 300 301 302 301 300 301 301 300 299 299 299 300 300 300 300 301 302 301 302 301 302 302 302 302 303 304 302 301 301 301 300 299 299 299 299 297 297 297 296 296 295 294 295 295 295 295 295 295 295 296 296 295
307 303 301 300 298 298 298 300 301 302 300 295 295 295 297 304 302 302 302 301 300 301 301 300 300 301 300 298 297 297 298 300 300 300 300 300 300 301 301 301 301 300 300 301 301 302 302 303 303 301 300 300 300 300 299 298 297 299 296 298 301 298 295 295 294 294 294 295 295 295 297 296 296 296
311 308 304 303 298 300 297 298 298 299 298 297 298 300 302 303 302 301 302 302 301 302 301 300 301 301 299 296 296 298 299 300 299 299 300 301 300 300 301 302 300 299 300 300 300 301 302 302 302 301 299 298 297 299 300 300 300 298 297 298 298 297 299 295 295 295 295 296 296 296 296 295 295 294
313 308 300 299 302 303 301 302 301 301 301 299 299 300 301 302 301 301 302 301 302 303 302 302 300 296 296 298 298 297 298 299 298 298 299 300 298 299 300 300 299 299 299 299 299 298 296 300 300 300 302 300 298 298 297 297 299 299 298 297 297 300 297 297 297 296 295 295 295 296 297 296 296 295
307 304 304 302 302 303 301 300 301 300 300 299 299 300 300 301 301 300 300 300 300 300 299 299 298 297 297 298 297 296 297 297 297 297 299 299 300 297 299 301 299 298 298 298 299 298 298 298 298 299 300 301 302 300 297 295 296 298 298 297 296 297 298 297 297 298 294 295 297 298 298 297 295 296
309 307 306 304 304 304 303 302 300 300 300 300 299 299 296 299 300 299 299 300 300 299 299 299 297 297 296 296 296 296 297 297 296 296 295 298 298 298 297 298 298 299 298 300 299 298 297 297 298 298 299 297 298 300 300 299 298 297 297 297 296 297 298 299 297 296 296 298 299 297 296 297 297 294
306 304 302 303 305 304 305 304 303 301 300 298 299 299 298 299 298 296 299 299 297 294 296 295 297 296 295 296 295 296 296 297 296 295 296 296 297 298 297 297 297 296 297 298 298 298 297 297 297 297 297 298 298 299 296 300 300 298 297 296 296 297 298 298 298 295 295 294 295 295 296 296 296 296
304 306 306 304 305 305 305 304 303 302 302 301 301 300 296 297 297 297 298 299 299 297 296 292 293 293 295 296 295 295 295 293 295 296 295 295 295 296 296 297 297 296 297 298 298 298 297 297 297 297 295 295 294 292 295 297 297 300 296 296 296 296 297 298 296 296 294 294 293 295 293 295 297 298
303 306 309 310 308 306 306 307 305 303 303 302 302 301 299 298 297 298 300 297 299 296 297 295 294 293 293 293 292 291 291 292 291 294 294 295 295 295 294 292 293 295 295 297 298 297 298 297 297 297 296 293 292 291 293 296 294 295 300 298 297 297 298 297 295 295 295 296 295 293 295 296 296 297
307 309 310 310 310 309 307 308 305 303 303 303 302 301 301 302 300 298 299 297 296 294 295 295 293 292 293 292 292 292 291 293 294 293 293 295 294 294 294 294 294 294 295 296 296 297 298 298 296 296 296 292 292 291 292 293 293 296 295 299 297 297 297 296 291 293 295 294 295 295 294 292 295 295
310 310 309 310 310 309 307 306 304 303 303 302 301 301 301 301 300 298 296 296 297 295 295 295 294 291 292 294 292 291 291 291 291 292 292 294 295 294 294 294 294 295 295 294 295 296 296 297 297 297 297 296 293 294 295 293 293 295 295 294 299 298 293 296 295 296 296 294 293 292 292 291 287 285
308 309 310 310 311 310 308 307 305 304 303 303 302 303 301 299 298 297 296 295 295 296 296 294 293 292 292 293 291 293 293 294 293 292 292 292 292 294 294 293 294 294 291 293 293 294 295 296 298 298 298 299 298 295 295 294 293 291 291 295 293 297 298 295 294 295 293 296 294 289 289 288 288 288
308 309 310 311 312 311 308 306 306 304 304 304 303 300 301 300 299 298 297 296 294 294 293 293 293 292 291 292 292 292 291 291 292 293 293 292 290 291 291 289 292 292 292 291 293 294 294 297 297 292 298 297 295 297 294 293 293 294 294 295 292 292 294 294 299 296 294 294 293 292 290 289 289 287
308 309 311 312 312 312 310 308 307 306 304 303 303 301 300 300 299 295 294 292 295 293 293 292 291 291 291 291 291 290 291 291 290 291 290 291 290 289 289 290 291 291 291 292 291 293 297 298 296 297 298 296 294 293 292 292 292 294 294 294 291 290 290 291 292 293 298 293 290 288 287 285 285 286
306 309 311 311 311 311 309 307 307 305 304 303 303 302 300 299 297 295 294 293 293 292 292 291 291 291 291 290 291 291 291 290 290 290 290 290 290 290 289 290 291 291 292 292 294 295 294 295 296 295 293 293 293 293 293 292 293 293 293 293 293 290 289 290 290 291 292 291 292 294 294 290 287 287
309 308 311 312 310 309 309 307 306 304 303 303 302 301 298 297 295 294 294 293 293 292 292 292 291 291 291 291 291 290 291 291 290 290 290 290 290 290 290 289 289 290 291 291 291 290 290 290 291 293 292 292 292 292 292 291 292 292 292 292 289 287 289 289 289 288 287 288 288 288 287 288 289 290
310 309 309 309 308 307 306 306 305 304 303 301 299 299 296 296 295 295 294 293 292 292 291 291 291 291 291 290 290 290 290 291 291 290 291 290 290 289 289 290 289 289 289 290 290 288 288 289 288 290 291 291 291 291 291 291 291 291 291 289 289 289 288 287 289 289 289 290 288 287 287 287 288 287
Wind_Speed
8 7 8 9 8 4 9 8 7 8 8 7 7 7 9 8 6 5 6 8 8 7 8 6 7 8 7 6 5 6 7 7 8 6 6 6 5 7 10 10 11 11 10 11 11 10 9 7 6 5 5 5 6 7 8 8 9 9 10 9 9 8 7 8 8 10 11 11 12 13 13 15 16 16
7 7 6 6 7 4 5 8 8 7 8 7 7 7 7 5 7 6 6 6 6 4 5 5 5 7 8 5 6 5 6 7 11 6 6 6 5 8 10 10 11 11 10 9 9 10 9 8 7 6 5 5 6 7 7 8 9 9 9 9 9 8 7 7 8 9 9 10 11 11 12 13 15 16
6 7 5 5 7 5 3 3 5 6 6 7 6 7 7 7 8 6 5 3 2 5 6 5 4 8 7 6 6 5 5 7 9 7 6 6 7 9 8 10 10 11 10 9 8 9 10 8 7 5 5 5 6 6 7 8 9 9 9 9 9 9 9 7 6 7 8 9 9 10 11 12 13 15
6 6 6 6 5 4 4 4 4 5 5 6 7 7 6 6 6 4 5 6 3 2 2 4 4 8 7 7 7 6 4 5 9 6 5 6 6 6 5 9 9 11 11 10 9 9 8 7 7 6 5 6 6 7 8 9 9 9 9 8 8 9 10 9 7 6 7 7 7 8 9 11 12 13
6 6 6 5 4 6 5 5 4 4 5 5 4 4 4 5 4 5 6 6 2 1 1 4 4 5 7 5 6 7 5 6 5 4 4 5 5 5 5 5 8 11 11 10 10 9 8 7 6 6 6 6 8 10 10 8 8 8 8 8 8 8 8 9 7 6 6 6 6 7 8 9 10 11
5 6 6 5 5 6 6 5 5 5 5 5 5 5 5 6 5 5 5 5 5 4 1 3 2 4 5 5 5 7 8 6 5 6 5 4 4 5 4 5 5 10 11 11 11 9 8 7 5 4 8 9 10 10 9 8 7 7 8 8 7 7 6 7 8 5 5 5 5 5 6 7 8 10
6 6 6 6 5 4 5 5 5 5 5 5 5 6 5 6 5 5 5 5 4 5 3 2 4 4 5 4 6 6 5 5 5 7 6 5 4 3 4 5 3 8 9 11 10 9 8 7 7 8 10 10 10 10 9 9 8 7 7 7 7 6 5 5 6 5 5 5 4 4 5 5 6 8
8 8 7 6 6 6 5 5 5 5 5 5 5 6 5 5 5 5 5 5 5 3 5 3 4 4 6 2 3 4 4 5 5 4 3 2 4 4 3 4 4 6 9 9 10 9 8 8 8 10 11 11 11 10 10 9 8 8 8 7 7 5 3 3 3 4 5 5 5 4 4 6 4 5
8 8 8 7 6 7 6 6 6 5 6 6 6 6 5 5 4 4 5 4 4 6 6 4 1 3 2 2 3 6 7 4 3 2 4 4 5 4 3 2 3 5 8 9 9 7 8 8 9 10 11 11 11 11 11 10 9 8 8 7 7 5 3 2 2 2 3 4 5 5 4 5 4 3
8 8 8 7 7 7 8 7 6 7 8 7 6 6 6 4 5 5 5 4 5 6 5 6 5 3 5 3 2 6 5 7 5 3 2 2 3 4 4 4 3 3 4 4 5 5 6 7 9 10 11 11 11 12 11 10 9 8 8 7 7 6 4 2 1 1 1 3 5 5 5 5 5 2
7 7 7 7 8 8 8 8 8 7 8 7 8 7 6 5 6 6 5 5 5 6 6 3 2 4 2 3 4 4 4 3 4 7 5 5 4 4 6 5 3 3 4 5 7 5 5 8 7 9 10 11 11 12 12 10 9 9 8 8 8 7 6 4 3 2 1 1 2 3 4 4 5 5
7 8 8 8 8 8 9 8 8 9 9 7 8 6 5 6 7 6 6 5 5 5 5 4 5 4 4 3 3 4 5 5 3 6 6 9 8 7 5 6 6 4 5 5 4 3 5 6 7 9 10 11 10 11 10 12 12 11 9 10 9 9 7 6 5 4 3 1 1 3 4 3 3 5
7 7 7 7 8 9 10 12 10 11 9 9 9 7 6 7 7 6 6 5 6 5 5 5 4 5 5 5 6 7 8 11 9 6 6 5 4 4 5 4 4 5 6 4 4 5 5 5 5 5 5 6 8 9 10 8 13 13 12 11 10 10 9 8 6 6 5 3 3 4 4 4 4 4
6 7 7 7 13 13 12 12 13 13 13 12 10 9 9 8 7 7 7 6 6 6 6 6 7 7 7 7 8 8 7 5 4 7 7 7 4 4 3 3 5 5 6 5 6 6 4 5 4 5 6 5 8 6 7 7 9 12 13 12 11 11 11 10 9 8 6 6 5 5 5 4 5 5
8 7 7 6 10 11 11 11 14 13 14 13 12 12 12 12 11 10 8 7 7 7 6 5 6 8 8 8 7 8 6 7 8 7 8 6 5 6 7 8 2 6 8 6 5 6 5 6 7 6 6 6 6 6 8 11 13 13 14 14 13 12 12 11 11 9 8 7 7 7 6 5 5 5
7 8 7 6 6 7 9 8 9 11 13 13 13 13 13 13 14 14 12 9 7 7 7 7 8 7 8 7 7 6 6 7 6 5 6 8 8 7 8 6 7 5 11 8 7 6 4 6 6 6 7 7 7 9 11 13 14 14 15 15 14 13 13 12 12 11 10 9 8 8 7 6 6 6
8 7 7 7 6 6 13 10 8 9 9 10 13 12 13 13 14 14 13 13 12 8 8 8 9 9 7 8 9 9 9 7 7 6 6 7 7 7 6 8 7 3 8 6 6 7 5 7 7 8 7 7 7 8 10 14 15 15 15 15 15 15 14 13 13 12 12 11 10 9 8 8 7 6
9 9 9 8 7 7 8 8 9 8 8 9 8 7 7 7 10 12 13 13 13 11 9 9 9 8 8 10 9 11 10 11 10 9 9 7 7 9 13 6 3 3 8 10 7 4 5 6 6 8 7 6 7 7 11 15 15 15 16 15 15 16 15 14 14 14 13 12 11 10 9 8 8 7
10 10 9 10 10 9 8 8 10 10 10 9 8 8 8 8 9 10 9 9 8 8 7 8 8 8 9 11 10 8 10 13 12 13 13 13 10 4 4 3 3 4 6 5 7 8 4 5 6 8 6 5 7 6 9 13 15 16 16 16 16 16 16 15 15 14 14 13 13 12 10 10 9 9
9 9 10 9 9 9 9 11 16 13 10 10 9 9 9 9 8 9 7 9 10 10 9 8 8 7 10 12 10 9 10 8 5 5 5 6 6 7 6 6 4 4 5 6 7 5 3 4 8 6 2 4 6 5 6 12 16 16 16 17 17 16 16 16 16 15 14 14 13 13 12 11 10 9
9 9 10 10 9 9 9 11 15 15 12 9 10 9 9 7 7 9 5 4 6 8 10 10 9 8 9 12 12 13 16 12 9 7 6 7 8 7 7 5 4 7 5 6 7 3 3 5 7 5 1 4 4 5 6 6 12 16 16 17 17 17 16 16 16 15 14 14 14 13 13 12 11 10
7 9 14 11 10 10 10 12 15 15 13 9 10 9 8 8 7 8 4 3 3 4 6 8 11 12 11 11 13 14 15 14 12 10 10 9 8 8 8 8 7 2 4 6 7 5 5 4 4 4 1 1 3 4 5 6 7 12 14 17 17 17 16 16 16 15 15 14 13 13 13 12 10 6
6 7 10 15 12 11 12 15 15 16 14 10 10 10 9 9 10 10 8 8 6 5 4 5 5 7 8 8 8 10 15 16 15 12 11 7 9 9 8 6 4 2 5 7 10 8 4 5 5 5 3 3 2 2 2 4 5 6 7 8 10 15 16 16 15 14 14 14 13 13 13 12 9 5
6 7 7 10 14 15 15 15 16 17 18 12 10 8 9 9 12 6 7 8 7 7 7 6 6 7 5 6 5 5 6 8 11 12 9 8 9 8 8 8 8 6 5 6 13 9 2 5 5 6 3 3 3 2 1 3 4 5 5 6 6 11 13 13 11 15 14 13 13 12 12 11 10 5
10 9 8 8 14 16 15 16 18 18 19 16 10 11 10 12 8 8 7 8 7 7 6 5 4 3 3 4 5 5 5 7 7 8 9 8 10 9 7 8 8 7 3 6 16 7 6 6 5 5 2 1 0 2 1 1 2 4 5 6 6 5 6 8 7 7 11 13 13 12 11 11 12 9
10 11 10 10 14 19 18 17 18 19 18 18 10 11 14 11 12 9 7 7 6 6 5 5 5 4 4 4 4 5 5 6 7 7 7 9 9 9 9 10 10 7 8 7 16 9 6 4 7 7 3 4 3 1 2 2 2 3 3 4 5 4 5 6 6 7 6 6 6 10 10 12 12 14
12 10 11 13 18 20 20 19 19 18 19 14 11 14 13 12 13 8 5 6 6 6 6 6 7 6 6 5 5 5 6 6 6 7 8 8 7 6 4 5 6 7 3 8 12 7 7 4 6 9 7 6 5 2 2 4 3 2 2 4 5 4 4 5 6 6 6 6 6 6 6 8 11 13
11 10 11 12 18 19 20 20 19 18 17 13 17 14 14 12 10 7 6 6 6 6 6 7 7 7 6 5 5 6 6 6 5 5 5 5 5 5 4 4 4 2 6 8 9 8 7 6 6 7 7 9 7 6 5 2 0 3 4 2 2 4 4 6 5 5 5 5 4 4 4 5 5 6
12 13 16 17 19 21 21 22 20 15 16 17 14 15 13 11 6 7 7 7 6 6 8 7 7 7 7 6 4 3 4 4 4 4 3 3 3 2 2 2 2 3 4 6 8 9 8 8 8 7 5 6 7 6 6 5 5 4 5 5 3 5 6 6 6 6 5 4 5 5 7 6 4 5
16 17 18 18 16 16 16 12 9 9 11 15 16 15 12 7 7 7 7 6 7 8 7 8 8 7 4 3 2 4 5 5 5 6 6 5 4 5 6 4 2 0 1 3 6 8 7 7 7 7 7 6 6 6 6 5 3 3 5 7 4 4 3 5 6 5 4 5 6 6 5 4 5 5
8 9 8 8 9 7 12 11 9 8 9 8 6 5 6 7 7 8 8 10 9 9 7 7 6 4 3 3 5 4 5 5 4 4 7 6 5 6 5 6 5 3 1 1 3 4 5 5 5 8 7 5 3 5 5 5 5 4 5 4 4 7 3 4 4 5 5 4 3 3 3 4 4 6
7 6 6 8 8 7 7 6 5 6 7 9 9 7 7 7 7 7 6 5 6 6 6 5 4 4 4 5 5 4 5 5 5 4 6 6 6 5 6 5 5 3 3 1 1 1 3 3 5 5 6 7 8 5 2 5 6 6 5 5 5 3 2 5 5 4 4 3 2 4 3 4 4 4
6 7 7 7 7 6 8 8 9 9 9 9 8 9 7 7 7 7 7 8 8 8 6 7 7 7 5 5 4 4 4 5 5 4 4 4 6 4 4 6 5 5 5 4 3 2 2 2 1 3 3 4 4 6 7 4 5 3 6 5 5 5 5 3 3 3 4 3 3 3 4 4 4 4
9 8 9 10 11 11 11 11 10 10 10 9 9 8 8 8 7 8 8 8 8 8 9 7 7 7 6 6 6 6 6 5 4 5 6 5 5 6 6 5 4 3 4 5 5 4 3 2 3 3 2 1 0 4 6 8 7 6 5 4 5 6 6 4 4 4 5 4 4 4 4 5 4 3
9 10 9 9 10 11 11 12 12 11 10 11 10 9 8 7 10 9 8 8 7 7 8 7 7 7 8 7 7 7 7 7 5 4 3 3 5 6 6 6 5 4 4 4 4 4 4 5 5 4 3 2 3 3 4 5 4 4 2 3 4 5 6 5 4 4 5 3 2 4 5 4 5 3
9 12 12 10 12 11 12 13 11 10 10 9 9 10 8 8 8 11 10 10 9 9 9 6 5 6 8 7 8 7 7 7 6 6 6 5 6 5 4 5 6 5 5 5 5 4 4 5 6 6 5 4 3 3 5 7 7 4 6 4 5 6 5 3 3 3 4 4 4 5 4 6 8 3
11 11 12 14 12 12 14 11 9 9 9 9 9 9 10 11 11 10 9 10 9 9 9 9 6 5 5 5 7 5 7 6 4 6 6 6 5 6 6 5 5 5 5 6 4 4 4 5 5 7 6 3 4 6 4 1 4 7 7 7 4 5 6 4 4 4 5 5 5 6 8 6 7 3
13 12 13 13 13 14 13 11 11 10 10 10 8 9 9 7 7 8 7 8 9 9 9 8 5 6 5 6 4 4 4 5 5 5 5 6 5 5 6 7 6 5 6 5 5 6 5 6 7 7 8 6 5 5 5 1 0 6 14 8 5 6 4 4 3 4 6 5 7 6 4 4 7 1
11 12 12 13 12 11 11 11 10 12 11 10 11 11 11 8 8 9 9 9 8 8 8 7 6 7 8 8 7 6 6 5 4 5 5 6 7 7 7 6 5 5 5 5 4 4 5 6 7 7 9 8 7 6 7 5 6 1 4 14 9 5 4 7 5 6 5 5 5 1 2 1 4 1
13 12 12 11 11 10 10 9 9 10 10 11 12 12 11 10 9 10 9 10 8 9 9 10 9 8 7 7 5 5 4 8 8 6 7 6 6 8 7 5 6 7 4 5 5 5 6 8 7 8 8 10 9 4 1 0 1 0 1 4 13 11 7 7 5 4 4 5 3 4 3 3 3 1
12 11 11 12 11 10 9 10 10 9 10 11 11 10 10 10 9 9 10 9 9 10 9 9 10 11 10 9 9 8 7 5 4 5 6 5 7 8 9 8 4 4 6 5 6 6 8 9 11 9 2 2 5 5 1 1 3 3 3 4 7 13 12 7 8 6 4 4 6 4 4 3 2 1
11 13 13 12 12 11 10 10 11 11 11 10 10 10 10 10 11 12 12 12 11 8 8 8 8 7 7 7 8 7 8 7 6 5 5 5 5 5 6 6 5 4 5 5 5 9 7 2 3 5 4 4 2 3 5 5 5 4 3 2 1 2 5 10 11 7 5 6 3 2 1 1 0 1
12 12 13 12 11 10 9 10 10 10 11 10 10 10 9 9 8 9 8 9 9 9 9 9 8 9 8 8 7 8 8 7 7 7 7 7 7 7 7 7 7 8 8 6 5 3 2 4 5 5 4 4 5 5 6 7 5 4 3 2 2 0 0 0 3 7 9 11 11 5 4 3 4 3
12 13 13 11 9 9 9 10 10 10 11 10 9 9 10 9 10 11 10 10 10 11 9 9 9 9 9 9 8 7 8 8 8 8 8 8 7 7 7 7 7 6 5 4 2 2 2 2 3 4 5 6 5 5 7 5 4 4 4 3 0 1 3 1 1 1 1 5 9 6 4 5 2 4
9 10 10 8 7 7 8 9 9 9 9 9 8 9 9 9 10 10 10 10 9 9 9 8 8 8 7 6 7 8 8 7 7 7 7 7 7 7 6 7 7 6 6 5 4 3 2 2 2 2 3 3 4 6 6 6 5 4 4 3 5 3 2 2 3 3 4 4 5 6 6 6 5 2
Wind_Direction
213 217 222 231 247 182 151 153 168 180 188 196 197 183 192 196 194 169 212 222 215 203 191 177 195 186 180 173 159 170 189 187 185 173 172 175 171 181 174 174 174 170 164 160 161 160 160 160 158 144 132 116 103 94 85 81 76 72 69 64 56 50 56 69 72 71 66 62 57 52 48 45 43 40
207 215 220 232 251 223 163 154 175 176 184 184 191 197 212 189 198 185 191 234 190 179 192 190 170 186 182 161 164 178 187 187 188 164 173 176 177 181 175 172 165 159 162 162 167 171 173 172 171 149 137 129 112 105 98 87 79 76 72 65 51 37 44 63 73 72 66 64 59 53 48 46 43 40
198 216 201 196 234 227 188 163 175 179 177 184 184 200 199 201 205 181 185 231 226 173 185 193 171 171 173 163 163 172 177 187 187 170 168 181 182 177 178 173 162 157 162 167 173 178 182 182 181 153 146 132 120 110 103 94 87 82 78 68 53 34 28 47 67 71 69 64 60 53 49 45 42 39
199 208 220 213 176 172 183 201 193 186 191 180 191 201 200 204 207 184 175 211 214 197 180 167 161 165 153 159 166 174 166 186 187 165 170 165 168 178 174 179 163 164 163 172 180 185 185 186 187 167 150 134 128 120 108 101 99 96 89 78 62 43 31 28 45 59 63 64 60 55 49 45 41 39
189 203 212 218 166 167 185 190 183 189 190 185 184 162 169 201 189 174 187 199 185 53 41 144 158 146 138 161 178 164 165 169 159 154 165 162 174 172 176 175 171 170 167 177 188 191 184 188 195 176 155 142 136 119 114 116 117 111 101 88 71 54 36 23 28 49 51 52 57 54 49 44 42 40
193 192 204 206 170 172 181 166 172 175 173 173 178 183 184 199 186 193 182 188 161 161 103 115 89 138 168 151 178 173 167 174 158 171 166 174 181 176 169 176 176 177 174 181 195 194 184 187 192 154 128 117 117 124 130 129 124 117 108 95 81 63 43 26 16 44 58 55 50 49 46 49 46 43
185 186 204 208 174 162 166 169 170 167 168 175 183 189 191 200 193 183 180 140 163 149 174 138 149 161 170 172 178 184 180 162 165 168 177 177 170 175 173 180 162 179 183 188 202 195 185 184 164 143 136 134 135 138 140 135 127 125 115 108 97 84 58 38 22 35 48 43 44 43 34 40 55 49
180 194 191 197 173 166 169 166 161 167 168 176 197 199 195 194 183 173 162 164 130 149 147 193 175 164 160 159 136 130 130 151 170 188 145 127 173 173 181 184 177 181 187 198 207 199 188 181 164 159 149 147 147 149 151 146 144 142 130 124 117 98 80 52 40 30 36 35 20 23 23 1 47 59
187 185 197 184 169 168 171 167 165 169 179 194 196 196 189 188 160 143 153 146 137 141 160 131 94 145 129 78 132 155 149 142 142 142 178 182 184 184 182 180 189 182 191 202 215 206 192 181 175 168 161 158 158 159 159 158 156 156 147 143 133 127 114 78 36 17 17 35 19 3 2 348 344 69
186 189 188 176 169 174 173 176 171 175 191 193 193 191 186 164 146 145 148 141 139 139 147 149 131 170 163 136 132 175 155 151 158 170 174 173 190 184 187 203 185 184 182 181 209 202 186 185 183 180 170 169 168 166 166 166 164 162 162 158 149 147 160 186 212 304 350 33 11 352 345 331 327 313
186 184 180 176 177 179 181 176 175 175 190 190 196 189 168 158 155 155 153 153 139 138 134 123 131 139 154 143 139 165 156 148 176 171 170 212 197 197 196 198 193 183 194 215 214 207 184 180 185 185 180 180 178 174 171 167 166 172 173 170 166 163 173 193 210 222 229 38 356 329 320 325 324 311
187 184 179 178 181 180 177 181 182 179 188 180 194 185 155 154 157 159 155 148 148 141 145 156 154 159 154 122 72 112 144 156 219 208 187 195 194 203 198 207 185 182 186 197 202 193 166 180 187 184 188 191 185 179 175 176 175 177 181 183 180 174 179 197 205 215 206 204 276 280 283 289 304 311
186 180 179 177 184 184 183 183 181 188 182 177 190 187 162 161 161 154 163 158 147 148 151 145 119 146 157 162 142 157 179 197 199 168 188 216 207 182 193 214 206 181 186 191 193 204 185 170 183 182 191 201 188 190 185 184 185 181 186 190 189 188 183 202 208 215 214 208 233 261 260 259 268 284
192 187 177 183 186 186 186 182 186 190 186 185 183 180 176 168 160 163 161 167 166 158 169 174 156 162 181 177 185 182 203 169 111 153 183 204 166 142 207 257 211 185 180 178 202 213 179 181 176 186 205 195 195 190 192 197 188 188 187 191 194 196 190 199 210 216 216 216 226 240 248 251 254 256
191 191 186 173 187 186 189 186 189 191 191 190 187 182 184 179 176 173 168 174 171 173 182 162 177 181 180 194 189 199 172 184 185 179 180 178 150 180 178 214 172 187 173 188 197 218 178 179 192 199 210 194 200 198 209 196 193 191 188 190 195 201 201 196 209 211 215 220 227 231 240 250 250 253
186 183 177 182 179 182 186 183 184 193 193 191 189 182 188 189 187 179 176 172 172 182 174 183 196 182 195 182 183 186 178 187 185 180 172 182 184 173 199 205 208 179 172 173 190 218 145 190 200 202 216 201 201 207 206 193 195 195 193 192 194 201 207 202 203 211 210 216 227 233 238 244 248 252
185 178 177 176 188 190 194 190 186 187 191 198 193 185 189 195 194 193 193 184 182 174 185 188 196 198 178 185 200 191 190 156 172 161 183 193 193 198 196 214 198 160 179 151 180 215 180 177 195 216 215 201 200 212 207 198 197 197 197 196 195 198 206 210 205 208 210 210 221 233 235 238 244 246
185 181 179 177 183 186 187 185 184 182 185 185 181 186 194 203 212 207 202 203 201 191 196 193 208 195 183 201 201 200 165 161 183 177 199 180 182 189 211 205 125 124 175 179 165 210 188 186 188 217 223 185 203 210 207 199 200 199 200 200 200 198 201 210 211 208 208 206 213 223 231 234 237 240
187 186 185 184 186 179 186 187 184 179 183 179 186 190 197 206 207 206 205 203 198 202 212 211 218 191 196 212 208 178 178 192 191 191 194 187 189 158 65 73 134 137 195 168 152 215 161 159 191 225 215 179 210 206 205 203 203 203 202 203 205 205 200 204 215 212 207 206 209 215 221 228 232 235
191 186 182 182 188 185 189 196 189 188 169 170 181 191 201 209 213 219 218 208 207 207 206 211 211 201 200 207 207 179 184 197 171 112 77 110 131 161 178 197 167 190 189 195 179 198 188 182 191 220 164 169 216 197 211 203 206 206 206 205 206 209 207 203 210 216 211 207 207 212 214 219 223 227
189 186 185 185 184 182 194 196 191 191 170 173 179 187 195 199 200 229 215 213 216 232 240 244 248 235 213 210 208 190 189 187 167 129 135 171 164 163 192 200 169 211 168 201 211 161 188 183 198 199 146 195 215 208 210 201 208 210 210 209 209 210 211 210 208 212 215 214 210 210 214 214 217 222
187 192 187 181 177 179 198 193 191 189 180 184 187 185 192 195 213 231 194 167 199 200 225 234 235 234 231 216 208 199 195 183 163 171 192 181 160 188 193 196 198 133 185 196 171 169 224 131 182 174 124 177 244 220 211 199 206 210 216 215 212 212 213 214 214 212 212 215 219 215 214 214 210 216
202 196 195 190 185 187 195 186 190 187 189 195 187 192 186 203 210 222 173 182 184 187 185 214 204 232 224 213 199 205 199 183 186 193 202 153 174 187 196 180 113 175 234 188 170 190 190 150 178 171 144 232 223 187 200 195 193 197 201 209 215 215 215 216 217 217 217 214 218 224 220 214 197 223
212 202 201 202 196 195 190 186 188 191 195 195 194 176 190 197 221 191 169 195 190 189 197 205 200 219 202 192 193 180 171 194 201 202 199 177 185 192 186 184 183 191 195 148 172 189 150 170 165 204 205 181 219 175 175 209 200 201 198 200 212 214 214 218 223 222 222 220 220 221 222 218 199 216
199 201 203 201 197 195 193 189 191 194 200 202 187 190 197 206 187 138 177 189 186 188 188 184 184 200 176 190 190 186 181 189 203 208 204 194 198 195 184 180 194 231 201 188 181 173 168 179 161 159 222 230 12 167 183 241 205 201 202 200 207 194 195 208 214 218 221 226 227 223 221 216 206 211
210 204 195 198 194 193 193 193 193 197 199 204 198 202 206 188 148 166 172 160 167 173 164 160 168 169 178 181 191 194 197 198 198 206 201 203 205 208 201 185 183 201 207 167 180 181 133 172 173 161 166 184 219 217 169 203 188 189 190 207 215 196 191 197 199 219 214 214 217 219 221 214 213 213
213 206 204 204 190 187 192 194 196 197 200 198 210 206 200 186 174 159 150 150 158 168 172 167 185 188 181 178 193 194 205 208 199 206 204 198 195 207 218 223 212 209 136 138 186 183 176 145 166 169 177 192 190 133 233 192 181 142 197 203 204 199 196 193 205 211 208 211 227 213 221 217 217 219
213 211 208 202 187 188 191 194 195 197 193 198 208 207 197 184 169 159 151 160 169 174 173 190 195 198 198 195 189 202 207 196 193 196 185 181 186 186 183 186 183 154 141 163 174 191 188 159 173 202 178 171 184 183 198 231 48 186 196 145 190 206 195 200 214 215 210 213 214 205 214 228 214 211
211 212 208 203 188 187 190 193 193 193 197 202 201 202 191 176 157 171 165 163 159 175 195 197 196 204 201 199 193 146 124 126 118 137 126 128 132 122 121 116 109 138 139 166 178 187 190 181 179 175 173 183 185 194 180 190 182 195 190 152 203 199 195 202 210 209 205 197 212 199 212 212 192 198
214 210 210 204 193 188 188 177 166 181 193 202 205 201 183 174 177 175 168 163 175 198 192 195 202 203 173 181 154 138 132 138 164 156 154 150 150 152 152 144 142 111 158 185 191 189 190 191 170 165 174 182 203 183 195 165 200 198 163 196 179 80 179 189 202 211 196 205 207 209 216 208 212 181
228 214 196 179 181 176 175 184 192 193 183 182 185 174 186 191 187 184 182 177 185 187 189 195 206 176 139 112 130 151 156 157 162 173 156 159 157 160 159 157 151 151 96 147 197 205 198 183 158 162 167 181 192 216 190 196 197 177 192 199 161 201 170 172 196 199 203 207 201 217 210 205 214 210
197 149 127 127 130 130 137 162 148 187 178 182 175 181 180 189 192 195 184 183 194 196 188 169 131 108 147 169 174 153 171 176 163 166 164 156 150 156 142 138 173 158 144 108 102 181 191 182 174 188 193 163 187 189 141 206 208 192 194 178 204 225 97 190 193 204 174 166 201 226 210 201 208 202
108 116 128 134 140 151 163 182 199 198 184 181 180 173 174 178 180 184 182 189 192 185 168 179 174 171 169 175 168 162 168 182 172 172 155 156 145 137 166 178 159 171 174 177 155 140 147 140 126 197 206 205 218 161 164 188 223 202 198 182 187 217 218 210 206 166 131 167 222 224 241 216 219 211
159 165 174 179 175 182 182 192 200 198 197 184 176 186 183 177 179 187 191 196 187 173 188 175 171 172 172 172 176 176 186 174 175 184 182 160 160 151 176 181 185 181 184 181 170 156 142 122 122 100 88 115 3 202 197 191 199 190 203 175 187 214 222 205 200 165 186 187 189 216 241 253 213 200
171 190 188 194 193 190 192 198 202 195 192 195 188 179 175 185 187 189 188 192 177 181 177 182 182 171 178 181 178 179 185 179 173 164 195 143 168 178 170 183 182 178 186 183 185 166 155 153 148 134 135 166 198 227 247 253 188 188 150 205 202 214 222 200 191 183 198 208 176 216 243 265 261 203
194 197 197 194 201 197 200 208 203 193 194 191 186 177 177 195 189 186 194 185 174 177 169 175 185 180 187 186 180 182 173 172 171 171 168 176 174 179 176 190 184 185 184 194 194 161 162 159 169 165 172 175 195 221 228 217 213 174 178 196 194 212 228 185 189 175 183 203 197 205 225 237 251 210
204 205 204 207 204 201 206 205 195 195 192 191 189 180 187 194 194 195 185 165 178 181 180 175 183 184 184 179 173 177 158 167 174 176 177 176 175 170 175 184 188 185 187 209 188 167 167 170 184 183 179 175 199 214 224 39 256 242 199 211 194 201 205 181 183 204 211 197 188 199 214 222 244 239
212 208 211 213 210 208 210 206 197 195 198 194 188 191 201 198 176 177 145 164 177 170 174 179 185 179 176 161 167 172 172 180 177 174 179 172 168 181 184 181 182 184 200 198 181 190 187 181 180 192 184 188 198 213 231 237 278 223 206 204 213 205 171 172 190 213 216 191 212 207 197 224 241 240
219 218 214 217 213 208 206 207 196 200 197 192 194 198 197 184 168 163 176 185 172 172 172 173 174 172 179 178 185 170 170 166 180 184 177 182 181 176 181 182 182 187 187 199 184 188 190 204 195 192 192 193 199 204 212 205 217 213 187 204 210 195 185 191 211 219 212 200 211 145 225 3 31 37
218 221 224 224 222 210 211 204 204 200 196 198 201 203 195 184 173 174 178 180 176 176 174 180 180 174 174 173 173 174 182 182 181 177 182 180 187 185 180 181 185 177 181 197 192 193 194 209 199 193 196 207 211 218 191 196 17 50 304 232 222 215 201 176 207 208 226 217 142 175 199 184 222 176
219 220 227 225 224 214 203 202 203 199 202 201 202 199 196 188 175 181 179 181 180 177 182 181 176 179 182 179 175 172 181 183 192 186 178 180 185 190 188 177 180 170 182 201 203 200 207 212 213 211 206 54 65 103 128 208 238 228 220 224 208 225 230 207 209 195 210 141 173 194 194 197 209 183
213 219 222 220 217 215 203 201 201 198 201 198 197 191 196 192 197 183 181 179 181 181 179 175 174 172 173 178 177 176 185 187 181 179 181 176 177 190 184 180 183 171 183 204 196 212 218 129 99 134 167 154 146 177 215 218 230 235 241 250 223 243 225 233 240 242 211 155 148 151 133 105 128 222
215 222 225 221 217 212 200 204 198 194 201 198 199 193 187 188 181 177 182 182 181 176 180 177 172 174 178 175 179 185 181 189 187 186 183 187 184 179 185 192 194 185 192 209 213 189 105 157 157 154 159 180 194 194 217 222 220 229 240 248 230 150 311 324 257 233 221 205 208 209 189 163 154 212
209 216 224 220 210 207 202 200 198 195 197 194 193 184 186 186 189 191 187 184 180 184 180 173 172 173 177 183 177 177 181 193 183 186 187 190 188 186 183 188 189 188 193 205 186 170 159 163 171 163 160 196 190 189 222 220 224 219 225 239 226 188 208 187 190 100 207 229 236 247 263 252 338 12
216 219 225 223 214 206 202 204 198 197 194 185 181 187 191 193 196 193 189 183 182 177 171 169 167 174 165 159 166 184 195 187 182 189 183 184 186 189 185 176 178 180 193 192 178 175 178 174 150 178 203 195 185 200 214 208 219 210 215 212 232 208 203 175 190 212 218 236 203 213 236 236 247 91